Wind_Speed
9 9 18 14 10 6 3 12 11 10 11 12 12 8 11 14 17 17 17 16 16 18 19 19 20 21 21 22 25 22 23 25 24 23 14 11 3 4 6 10 12 15 19 19
13 15 10 6 10 5 6 7 12 9 11 11 11 11 13 14 18 20 17 16 15 20 17 19 20 20 22 24 27 27 26 20 15 11 9 6 5 7 9 11 14 15 19 22
10 7 9 9 6 7 8 7 11 11 13 12 11 15 15 15 15 18 18 17 18 19 21 18 17 20 21 20 18 15 12 10 6 4 7 13 14 11 12 15 20 21 25 29
4 11 7 10 8 7 7 6 3 6 15 21 18 17 17 20 17 16 21 22 18 18 18 19 19 18 16 14 13 11 10 10 10 12 16 11 10 8 15 20 24 29 30 35
10 10 9 10 6 10 10 4 5 9 15 13 16 12 27 19 17 15 18 18 18 20 19 18 17 16 16 12 9 9 13 16 20 20 13 12 15 17 22 24 28 34 37 42
9 10 7 3 9 7 4 2 4 8 14 11 16 15 9 17 12 14 15 18 18 18 18 17 17 16 11 10 11 16 19 16 12 14 16 18 22 24 24 27 31 37 38 39
9 8 10 7 6 4 6 7 12 7 8 10 3 6 21 4 4 11 14 16 17 18 18 18 15 12 12 13 14 15 15 14 14 17 19 21 24 27 31 33 33 36 37 38
17 10 12 10 10 6 9 11 8 5 8 7 4 9 7 8 7 8 13 15 17 18 18 17 15 14 14 14 14 14 16 18 20 21 24 27 29 30 34 38 36 35 36 38
18 7 12 11 9 6 7 9 6 6 7 9 15 7 6 10 8 7 12 17 18 18 18 18 18 16 15 16 16 17 20 22 23 24 28 32 33 38 37 36 33 35 38 41
6 6 6 9 9 10 10 5 5 8 3 7 11 9 5 8 9 9 15 17 18 19 19 19 19 18 17 18 19 20 23 27 26 31 32 34 41 35 33 33 34 37 40 42
14 13 7 8 11 14 8 12 10 7 7 4 4 3 7 4 8 10 14 16 19 20 20 19 19 22 21 22 23 23 27 30 32 34 38 36 39 35 34 35 36 39 41 42
15 10 15 13 10 13 10 11 12 11 9 10 7 8 5 4 8 8 11 16 18 19 20 21 26 26 26 28 29 29 31 32 40 44 33 40 37 34 34 37 38 40 41 41
14 12 15 11 12 14 13 14 13 14 8 12 6 6 5 10 11 8 10 16 17 22 23 25 27 28 29 31 32 33 32 36 41 38 38 39 36 34 35 37 39 41 41 41
14 16 16 16 12 6 12 14 15 17 14 16 19 15 9 11 12 11 11 16 18 23 27 29 29 30 33 33 34 32 34 37 37 36 36 34 34 33 35 38 40 41 41 42
15 14 16 19 13 10 11 11 13 19 23 22 20 18 13 11 14 14 14 16 21 22 25 28 31 33 35 34 33 33 35 36 35 35 33 32 33 34 37 40 40 40 41 42
17 12 13 14 14 16 17 18 18 20 21 23 24 25 20 18 17 14 18 17 20 21 23 25 28 32 32 31 31 34 35 36 38 33 32 31 33 36 38 39 40 41 42 41
11 12 10 10 9 8 14 22 22 22 22 22 23 22 17 16 19 17 17 17 18 20 22 24 27 30 30 31 32 34 36 38 36 32 30 31 34 37 38 38 39 40 41 41
14 12 12 7 4 2 11 13 14 13 16 19 21 20 18 14 13 12 13 15 17 18 20 23 27 28 30 32 33 35 38 39 37 30 29 32 36 37 37 38 40 41 40 40
15 13 9 6 9 12 15 13 14 9 10 9 10 12 12 18 14 16 14 15 15 19 22 25 27 28 32 33 37 38 41 36 33 30 29 34 36 38 38 40 40 39 38 38
16 17 12 9 4 4 4 10 10 10 10 8 4 3 8 12 11 8 14 18 23 22 22 25 26 29 32 36 42 43 35 32 26 26 31 35 37 38 40 41 38 36 36 37
17 17 17 12 8 8 10 14 13 6 3 7 10 11 16 11 13 16 24 25 24 23 25 27 26 28 37 37 41 42 25 23 26 28 33 35 37 39 41 40 38 35 35 35
8 9 9 12 8 8 11 7 4 6 14 20 17 14 18 21 22 24 25 26 26 28 27 28 32 37 38 39 36 24 20 24 28 31 34 36 39 39 38 37 36 35 35 34
9 11 6 9 4 10 9 11 18 18 18 22 22 24 22 25 26 27 28 29 32 32 30 33 40 43 34 35 25 20 23 26 30 33 36 38 37 36 36 36 37 36 33 31
13 16 14 15 8 11 13 18 22 22 21 22 22 22 24 25 30 29 30 31 30 31 34 38 38 32 27 23 21 22 25 28 32 36 38 37 37 35 34 34 35 35 33 31
11 13 12 14 15 13 17 21 19 20 23 24 25 26 25 26 29 31 30 29 29 32 35 33 28 21 19 22 23 24 27 32 35 37 37 38 38 36 34 34 33 32 31 31
16 13 14 11 16 17 21 21 23 24 25 26 25 24 24 25 25 26 26 28 31 32 28 21 20 20 21 22 24 28 31 34 36 37 37 37 37 36 35 35 35 32 30 30
Wind_Direction
230 200 197 208 208 259 232 188 186 181 182 196 197 184 185 192 195 199 193 189 194 197 212 210 217 223 232 243 254 267 270 275 279 285 286 302 308 241 226 242 262 275 278 291
197 192 200 229 203 247 199 169 173 162 182 206 199 199 211 218 211 207 204 204 205 219 221 223 229 237 245 252 260 264 268 267 272 274 291 301 281 269 266 275 274 286 291 292
240 136 192 187 197 223 203 217 193 198 194 202 204 203 202 210 201 205 207 209 214 229 233 239 252 262 259 253 252 254 256 261 279 287 299 303 290 269 265 271 276 285 288 299
284 205 175 205 226 225 247 198 162 194 195 209 204 239 203 206 215 221 223 212 211 210 241 255 261 263 253 246 247 251 268 268 273 292 297 287 282 263 242 281 298 308 307 311
236 195 201 205 194 233 156 167 205 226 243 221 203 254 202 200 196 209 226 220 206 232 243 253 253 247 243 237 257 278 277 281 286 288 289 276 278 285 289 299 305 310 310 315
232 202 182 207 220 215 247 211 240 252 257 265 264 250 195 194 210 207 205 199 207 219 234 235 236 235 236 253 263 277 275 276 285 291 290 290 293 294 293 306 303 311 316 314
214 202 220 206 186 189 210 244 256 216 235 243 232 253 253 243 210 212 206 203 207 220 228 223 226 235 242 260 267 269 269 282 292 301 297 295 299 301 297 300 301 310 309 308
203 197 205 205 219 251 228 269 267 276 292 266 147 246 202 234 257 215 206 198 199 216 216 211 222 233 256 255 266 275 280 284 287 292 300 299 288 299 300 296 308 309 308 308
228 183 191 205 218 218 232 250 250 273 276 276 265 218 246 251 242 217 191 191 199 203 211 214 225 240 256 262 269 279 278 280 287 291 292 293 293 298 297 303 306 309 312 314
236 223 195 232 226 239 226 218 233 224 257 256 232 236 144 182 195 203 194 197 204 205 208 209 225 241 254 271 275 279 278 281 282 287 285 292 302 297 305 306 310 312 314 314
230 232 203 209 233 239 230 231 235 261 242 279 292 169 132 186 197 198 199 201 204 206 211 219 226 242 256 266 279 280 278 278 282 279 282 299 295 307 308 310 310 313 314 315
223 240 243 252 238 236 238 245 238 237 235 233 270 285 271 239 191 204 209 212 211 214 217 226 244 255 265 274 278 281 282 284 290 289 288 295 305 306 308 310 313 314 313 314
230 235 242 240 254 254 239 241 237 236 247 235 241 264 242 262 249 243 224 220 215 217 236 256 258 262 269 276 282 283 281 284 290 290 299 303 306 307 308 310 312 312 313 314
218 229 232 240 267 265 227 241 237 228 229 244 249 261 266 247 259 246 240 225 235 255 255 259 263 266 272 282 283 279 280 283 287 296 301 302 303 305 306 309 311 313 313 314
217 234 241 247 262 267 253 253 246 239 243 245 263 264 273 281 263 254 248 236 261 265 259 260 263 268 274 279 277 276 279 285 292 301 301 300 302 305 308 311 313 313 315 316
232 239 242 249 251 263 262 259 254 248 248 251 260 266 278 274 262 258 248 252 262 268 261 261 265 269 275 275 274 276 281 288 295 295 297 298 302 307 310 312 314 316 316 315
228 227 238 247 247 262 270 265 255 255 254 256 262 269 276 273 271 276 247 265 268 268 264 264 268 271 271 272 272 278 284 289 292 292 295 300 306 309 311 314 316 315 315 314
242 227 219 240 234 253 264 262 259 259 257 261 266 273 274 276 268 261 249 264 272 266 271 271 268 269 269 270 272 277 282 284 286 289 295 302 308 311 314 315 315 315 313 312
236 217 219 209 222 265 280 261 276 271 280 283 274 274 259 274 279 289 280 270 279 286 281 272 271 272 270 272 273 274 277 285 283 290 307 310 311 313 315 315 315 313 311 311
229 224 216 220 210 227 263 257 273 281 285 258 293 296 303 310 298 289 268 279 296 295 282 278 278 282 276 276 274 272 275 282 293 308 311 311 312 314 315 314 314 310 309 308
220 222 223 234 242 262 252 270 276 252 246 258 284 291 293 298 249 266 285 293 296 292 288 285 287 280 275 277 280 273 281 298 308 318 313 312 312 314 315 314 313 311 309 310
231 214 224 218 232 260 257 245 193 231 278 286 288 276 282 277 288 288 289 291 292 291 290 281 279 272 285 271 271 279 307 315 317 315 310 311 314 315 313 313 313 310 309 309
231 229 231 221 255 257 253 273 285 285 281 284 285 282 278 278 283 284 286 286 287 290 281 283 283 270 263 271 277 310 321 319 314 309 311 315 315 313 313 312 310 309 308 307
243 254 251 262 263 257 264 275 279 282 282 283 285 283 283 283 285 287 285 287 284 282 285 285 271 263 272 287 312 322 322 312 310 314 315 315 315 314 312 310 309 309 308 307
238 262 265 266 269 268 269 279 283 282 286 288 289 289 287 284 284 285 287 286 288 286 274 264 263 278 305 324 329 317 312 314 316 316 316 315 315 314 311 312 312 309 306 304
258 258 266 270 256 268 261 281 284 287 290 292 293 293 289 285 284 283 282 288 284 271 266 269 291 325 338 323 314 315 316 317 317 316 314 313 313 312 311 313 313 309 304 301
Height
3131 3132 3130 3130 3130 3130 3128 3128 3130 3133 3136 3138 3138 3141 3142 3145 3146 3147 3149 3150 3151 3152 3152 3154 3155 3156 3157 3156 3154 3155 3156 3155 3155 3154 3152 3150 3149 3150 3149 3151 3150 3150 3149 3148
3131 3129 3129 3129 3131 3130 3129 3129 3130 3133 3135 3136 3138 3140 3140 3141 3143 3145 3146 3148 3149 3148 3151 3152 3153 3153 3153 3153 3151 3152 3151 3151 3151 3150 3150 3149 3149 3149 3149 3149 3148 3146 3145 3144
3126 3126 3128 3130 3131 3130 3128 3128 3131 3131 3133 3135 3136 3136 3136 3138 3140 3142 3144 3146 3146 3146 3146 3148 3148 3148 3148 3148 3148 3147 3148 3147 3147 3148 3148 3148 3147 3145 3145 3145 3143 3142 3140 3136
3123 3127 3130 3131 3129 3129 3127 3128 3129 3131 3131 3129 3130 3125 3133 3132 3134 3137 3138 3140 3141 3143 3142 3143 3143 3143 3143 3144 3145 3145 3145 3145 3145 3145 3143 3143 3143 3142 3141 3138 3135 3133 3131 3127
3129 3129 3129 3128 3128 3128 3127 3128 3131 3131 3128 3132 3127 3127 3121 3131 3131 3131 3133 3135 3138 3138 3138 3139 3139 3140 3141 3142 3143 3143 3143 3143 3142 3141 3140 3140 3139 3138 3135 3133 3130 3125 3121 3115
3128 3126 3127 3126 3128 3129 3129 3130 3131 3130 3128 3124 3123 3124 3121 3125 3128 3130 3131 3132 3133 3134 3135 3136 3137 3138 3139 3140 3140 3140 3140 3139 3138 3137 3137 3136 3135 3132 3129 3125 3123 3119 3113 3108
3126 3126 3125 3127 3130 3130 3131 3131 3127 3126 3123 3124 3124 3126 3124 3123 3124 3128 3127 3128 3130 3131 3133 3134 3135 3135 3136 3137 3137 3136 3135 3134 3133 3133 3132 3130 3128 3126 3123 3119 3115 3112 3108 3104
3121 3124 3125 3126 3128 3128 3129 3128 3126 3126 3122 3120 3122 3122 3120 3121 3122 3123 3124 3126 3127 3128 3130 3132 3133 3133 3133 3133 3132 3132 3131 3130 3129 3127 3125 3124 3121 3119 3116 3112 3109 3105 3101 3096
3117 3118 3121 3124 3126 3129 3127 3128 3128 3127 3128 3128 3121 3119 3120 3119 3120 3121 3122 3124 3125 3125 3127 3129 3130 3130 3129 3129 3128 3128 3126 3124 3122 3121 3119 3117 3115 3112 3109 3106 3101 3096 3091 3086
3116 3118 3120 3122 3124 3125 3127 3126 3127 3127 3127 3121 3110 3113 3111 3117 3118 3119 3121 3121 3122 3123 3125 3126 3126 3126 3125 3124 3123 3123 3121 3119 3118 3115 3113 3110 3107 3104 3101 3097 3092 3087 3083 3077
3118 3120 3120 3121 3121 3121 3123 3123 3124 3124 3123 3121 3116 3111 3114 3117 3118 3118 3119 3119 3120 3121 3122 3122 3123 3121 3121 3120 3119 3119 3116 3114 3111 3109 3106 3104 3101 3096 3091 3088 3084 3078 3074 3068
3117 3117 3116 3118 3117 3118 3119 3119 3120 3122 3121 3122 3121 3116 3113 3114 3116 3116 3118 3117 3118 3119 3119 3118 3117 3116 3116 3115 3114 3112 3110 3108 3106 3102 3100 3096 3093 3088 3084 3080 3075 3070 3065 3059
3114 3115 3114 3115 3118 3115 3115 3116 3117 3119 3118 3118 3119 3115 3111 3111 3112 3113 3115 3115 3115 3115 3113 3112 3111 3111 3111 3109 3108 3105 3104 3103 3100 3097 3092 3088 3084 3080 3077 3073 3068 3063 3056 3051
3110 3112 3111 3111 3110 3110 3112 3113 3114 3116 3116 3115 3113 3112 3111 3109 3109 3110 3109 3111 3109 3108 3107 3106 3105 3105 3104 3103 3101 3100 3098 3095 3093 3089 3085 3081 3078 3074 3070 3066 3060 3054 3048 3042
3108 3109 3109 3109 3109 3109 3110 3110 3111 3111 3111 3111 3110 3110 3110 3109 3107 3107 3106 3106 3103 3102 3102 3101 3100 3099 3098 3096 3094 3093 3091 3088 3086 3081 3078 3074 3071 3067 3062 3057 3051 3045 3039 3033
3104 3106 3105 3106 3107 3106 3106 3107 3107 3107 3107 3106 3106 3105 3107 3105 3103 3102 3101 3100 3098 3098 3097 3096 3095 3093 3092 3090 3088 3086 3083 3081 3077 3074 3070 3067 3064 3060 3054 3048 3042 3036 3030 3024
3101 3102 3103 3103 3102 3103 3102 3099 3100 3101 3101 3102 3101 3102 3100 3098 3097 3096 3096 3094 3094 3093 3092 3091 3090 3088 3086 3083 3081 3079 3076 3073 3069 3065 3063 3060 3055 3050 3045 3039 3033 3027 3021 3016
3097 3099 3100 3100 3100 3102 3096 3095 3095 3095 3096 3097 3097 3096 3096 3094 3092 3091 3090 3090 3090 3088 3087 3086 3084 3082 3080 3077 3075 3072 3068 3064 3061 3058 3055 3051 3046 3042 3036 3031 3025 3019 3013 3007
3094 3095 3096 3097 3096 3095 3093 3092 3092 3091 3092 3092 3090 3091 3090 3087 3087 3086 3086 3085 3084 3083 3081 3079 3077 3075 3072 3071 3067 3064 3060 3056 3052 3049 3046 3043 3038 3033 3028 3023 3017 3012 3006 3000
3090 3091 3094 3093 3094 3093 3089 3088 3088 3088 3089 3086 3086 3086 3086 3085 3084 3086 3082 3081 3079 3077 3075 3073 3071 3069 3067 3063 3059 3055 3049 3046 3044 3042 3039 3036 3031 3025 3020 3014 3009 3004 2998 2993
3086 3087 3088 3090 3090 3087 3087 3084 3084 3088 3090 3084 3084 3084 3082 3082 3081 3080 3077 3075 3073 3071 3068 3066 3064 3062 3058 3054 3051 3046 3042 3039 3037 3035 3032 3028 3023 3017 3012 3006 3001 2996 2991 2986
3084 3084 3084 3086 3086 3085 3081 3081 3084 3083 3081 3080 3078 3078 3077 3075 3075 3073 3070 3068 3066 3063 3061 3060 3057 3052 3048 3045 3041 3038 3035 3034 3031 3029 3026 3021 3014 3009 3004 2998 2994 2989 2984 2978
3083 3082 3083 3083 3083 3079 3079 3078 3077 3077 3076 3074 3074 3072 3071 3069 3068 3066 3064 3061 3058 3056 3054 3051 3047 3042 3038 3036 3033 3031 3030 3029 3027 3023 3017 3012 3007 3002 2996 2991 2986 2981 2976 2971
3077 3077 3077 3077 3078 3076 3074 3073 3072 3071 3071 3069 3068 3067 3065 3064 3059 3058 3056 3053 3051 3048 3047 3043 3038 3034 3032 3031 3029 3027 3025 3024 3020 3015 3009 3004 2999 2995 2990 2985 2979 2974 2969 2965
3075 3073 3073 3072 3072 3072 3068 3067 3067 3065 3065 3063 3061 3060 3058 3056 3053 3049 3048 3045 3044 3041 3038 3034 3031 3030 3028 3026 3025 3023 3020 3017 3012 3007 3001 2996 2991 2986 2981 2976 2971 2966 2962 2959
3069 3069 3068 3067 3066 3066 3062 3062 3061 3059 3058 3056 3054 3053 3051 3048 3046 3043 3041 3039 3036 3033 3031 3029 3028 3025 3025 3024 3021 3018 3013 3009 3004 2999 2994 2988 2983 2978 2973 2968 2963 2959 2956 2952